Wind_Speed
10 12 15 15 17 17 16 18 22 28 30 31 38 46 46 49 51 49 48 45 43 42 39 36 38 38 33 28 22 26 21 21 13 12 12 5 6 7 13 18 21 25 34 37 37
12 15 18 17 16 17 16 19 21 25 31 34 36 43 50 50 51 51 53 49 47 45 42 39 41 40 34 29 24 28 21 12 13 15 15 9 9 7 12 17 17 21 26 35 35
16 19 20 20 20 20 21 25 24 25 30 35 39 41 47 53 51 53 56 54 51 49 45 44 42 39 37 30 25 27 27 26 14 16 15 12 6 6 7 12 12 17 22 29 34
16 20 24 24 24 20 22 23 23 27 29 33 36 42 45 51 54 56 57 59 56 53 49 45 44 40 39 34 29 29 28 21 25 18 18 19 17 9 4 8 9 14 20 24 32
21 23 27 28 26 24 25 24 23 25 33 35 39 40 46 50 55 58 58 61 62 58 52 49 47 43 43 39 36 35 28 25 27 24 27 15 13 7 4 7 6 10 15 18 28
26 27 29 32 31 31 31 34 36 31 30 38 42 43 45 50 57 60 61 63 64 64 58 52 50 48 48 42 39 45 35 27 24 27 30 27 13 7 5 4 7 7 12 14 22
31 33 35 40 39 39 41 42 42 41 39 36 45 46 44 49 56 62 65 65 66 65 64 58 55 54 51 44 41 53 41 31 25 26 29 32 24 15 12 8 5 5 8 10 17
35 38 42 43 44 47 51 53 54 52 50 43 44 46 48 49 52 60 64 67 68 68 68 65 60 58 56 49 44 51 45 37 33 31 29 21 18 23 20 17 7 5 5 7 11
38 42 45 46 51 57 59 63 63 63 56 51 48 50 50 54 53 54 63 66 70 70 70 70 65 61 60 55 51 51 47 38 34 33 33 27 23 22 18 18 12 8 6 7 7
42 46 49 50 59 64 67 72 72 68 62 53 50 53 55 57 56 55 61 67 71 75 74 73 71 67 63 62 59 56 50 47 41 40 28 32 19 30 28 26 17 12 9 6 6
47 52 57 60 67 73 77 80 73 69 58 56 56 53 59 60 60 56 58 67 71 75 76 77 75 73 71 66 62 62 57 53 55 33 39 36 35 36 33 31 24 17 13 11 9
51 58 64 67 74 82 83 80 67 48 43 47 53 56 58 62 61 62 60 63 73 77 76 80 79 77 72 69 66 66 63 57 55 47 36 39 42 41 32 28 25 20 15 14 12
54 63 67 73 79 83 82 70 45 31 26 31 41 51 57 62 61 62 58 64 73 79 79 82 84 80 78 73 71 67 65 61 58 58 46 48 47 42 35 33 30 31 22 18 18
58 65 72 77 84 82 76 51 35 24 19 23 34 47 57 65 65 61 60 61 70 81 82 83 85 84 82 79 75 70 68 63 60 60 60 48 47 46 42 43 37 35 29 24 24
61 68 74 83 83 81 61 42 29 17 14 21 31 41 52 62 64 63 64 64 66 79 82 82 85 87 85 83 79 73 70 66 65 66 64 56 52 49 46 43 42 35 37 32 27
63 70 77 83 83 77 51 33 21 10 15 22 26 32 43 55 62 65 65 66 65 77 84 81 85 88 89 87 82 78 73 70 68 66 68 70 66 55 51 50 44 45 43 33 30
64 70 78 80 82 70 43 23 13 8 12 19 22 26 33 46 56 62 64 67 70 76 85 82 83 85 89 89 85 83 77 75 69 66 65 65 61 61 58 48 49 49 44 35 34
63 70 78 86 86 62 35 17 12 7 5 11 17 21 28 38 46 53 59 65 69 77 84 86 82 80 85 91 89 85 82 78 75 72 68 63 60 64 59 59 53 49 41 41 40
64 70 78 80 87 58 31 14 14 9 6 8 10 17 22 29 35 42 49 58 67 77 87 89 86 82 83 89 90 89 84 84 83 83 70 64 67 66 63 58 59 61 53 50 46
65 69 76 81 83 57 30 14 13 12 9 9 11 16 21 25 28 30 37 48 62 75 85 89 88 84 83 87 90 91 90 87 85 85 78 73 75 71 65 63 62 58 59 56 50
63 68 75 80 81 56 31 15 13 13 9 9 12 15 19 27 28 28 32 40 51 69 82 88 91 86 85 85 88 90 90 89 89 87 84 79 75 74 74 69 62 66 64 60 59
61 67 73 80 79 62 32 19 19 18 19 18 19 20 22 26 33 34 31 36 45 56 75 85 90 87 87 89 91 90 91 92 91 89 86 85 89 83 76 77 66 65 61 59 59
60 65 72 78 76 62 33 22 21 27 26 25 27 30 32 34 36 39 41 42 44 53 61 78 87 89 89 87 90 90 92 92 93 93 91 89 88 92 88 85 74 66 68 65 62
60 64 71 76 76 68 35 21 17 20 23 23 25 30 32 37 40 45 48 53 52 54 61 69 81 88 91 96 95 92 94 94 95 95 92 92 92 98 89 91 87 82 76 71 68
59 63 70 78 77 69 38 22 18 20 21 23 29 33 33 34 38 40 44 55 60 60 63 69 74 83 90 93 90 89 92 96 96 97 97 95 96 104 99 95 89 84 87 74 71
60 63 69 76 76 69 45 27 20 17 19 23 25 25 28 29 31 26 34 50 63 66 65 71 75 78 83 90 93 92 94 96 99 100 100 100 96 99 102 105 96 89 84 81 82
59 63 69 74 74 69 47 28 23 21 21 22 24 26 28 29 27 20 26 41 60 69 69 70 76 78 82 85 92 94 94 97 99 99 101 103 103 97 99 101 106 101 94 88 83
Wind_Direction
329 335 335 336 343 333 307 287 273 263 251 242 230 227 227 228 226 223 222 219 219 220 218 210 203 205 207 211 209 185 189 202 195 206 210 204 54 95 53 32 29 38 44 39 52
332 341 339 331 327 330 319 307 290 272 256 251 241 230 226 225 226 225 221 220 218 217 216 213 209 211 207 212 202 192 196 210 213 231 162 203 50 100 40 27 23 36 42 38 41
339 338 330 330 326 322 314 311 306 285 268 256 247 238 227 225 224 225 223 219 218 216 216 213 210 212 210 203 192 183 187 192 188 167 182 209 235 286 12 18 19 30 38 41 40
323 328 331 331 321 310 308 301 302 297 278 260 253 244 233 225 223 224 222 221 217 216 214 213 211 210 213 202 188 185 191 185 173 204 214 223 247 217 296 344 33 35 38 35 39
324 327 330 328 317 310 305 306 288 299 281 267 250 246 239 230 222 222 221 221 218 215 213 212 212 213 214 205 197 185 183 188 194 194 209 211 187 182 272 319 65 46 29 25 36
319 323 327 324 313 307 305 305 298 295 291 267 256 249 244 236 226 220 220 219 218 215 213 211 211 213 215 209 202 188 188 170 193 196 201 211 219 218 249 256 107 34 26 21 29
322 321 323 322 318 312 305 303 298 293 287 274 255 253 244 238 232 222 217 219 217 215 213 211 210 212 215 209 207 197 179 174 189 201 201 214 228 232 249 247 174 77 6 6 31
324 324 322 320 317 314 309 307 302 294 286 271 251 245 245 235 232 229 219 216 217 215 213 212 210 211 213 209 205 204 198 177 193 199 199 202 209 227 238 240 234 147 326 339 10
324 326 324 323 323 316 311 304 295 293 282 268 250 242 240 236 231 229 224 217 214 215 213 212 211 211 212 210 202 208 210 187 203 212 221 216 221 224 226 227 220 229 235 301 324
323 328 327 322 319 316 311 305 297 289 282 263 250 238 238 234 229 227 223 217 214 213 212 211 211 211 210 211 203 208 208 197 186 201 199 199 199 231 205 220 222 225 214 248 268
326 330 328 320 321 318 315 308 299 294 276 261 251 242 232 233 228 224 220 217 214 212 212 211 210 211 209 210 207 207 209 203 199 182 202 203 201 217 222 223 228 228 221 210 233
330 330 326 322 322 320 316 314 310 298 276 256 245 240 228 225 227 223 219 218 213 211 211 211 211 211 209 211 208 208 210 208 203 194 179 206 202 210 208 220 228 221 223 205 220
332 330 328 330 327 325 324 320 314 298 270 247 231 223 219 218 222 221 220 217 213 210 210 211 209 209 209 210 211 207 208 208 206 204 195 206 207 211 215 224 226 231 217 207 214
333 330 333 334 334 331 329 325 318 304 272 240 219 209 209 210 214 215 218 218 215 211 210 211 209 209 209 210 210 207 209 206 204 205 204 201 210 214 202 214 222 224 227 216 216
334 335 336 341 338 338 332 328 322 306 264 225 208 205 205 206 209 212 215 217 216 212 209 209 211 209 209 210 209 208 208 208 206 206 200 206 209 213 211 218 223 221 239 227 220
334 338 343 344 342 339 335 328 321 296 237 208 197 204 206 206 207 208 212 215 215 213 209 209 211 210 209 209 209 208 206 209 209 208 210 214 220 219 222 227 223 221 224 220 215
337 340 346 346 345 342 338 324 329 311 221 205 197 203 211 209 210 209 210 212 214 212 208 208 210 211 210 209 210 208 206 203 209 214 212 216 220 222 221 212 217 210 212 218 220
339 344 348 351 350 343 339 332 330 313 243 214 201 206 211 213 216 214 214 216 215 212 208 207 208 210 211 210 209 208 208 204 204 205 214 213 210 223 222 224 211 209 213 223 222
338 346 346 353 352 345 339 334 324 315 275 241 223 216 217 215 219 223 222 219 217 213 208 207 207 209 210 211 210 209 209 207 206 207 212 210 212 217 220 216 219 223 213 217 218
338 346 348 352 351 347 334 328 319 302 276 252 239 227 222 221 224 231 227 218 213 210 207 207 207 207 210 211 211 210 209 209 207 210 207 202 209 215 213 214 218 217 219 229 220
339 346 347 354 352 348 334 302 277 271 257 247 230 230 229 229 226 227 228 219 215 210 208 209 208 208 209 211 211 210 209 209 209 210 208 202 203 211 216 215 220 217 223 231 230
340 345 347 355 350 349 335 305 267 261 256 250 250 245 242 233 224 224 225 226 220 215 211 209 211 209 210 211 211 210 210 209 209 209 209 206 206 212 213 215 215 221 220 220 224
340 345 349 351 351 350 338 309 287 260 257 251 253 250 247 244 245 244 239 228 223 219 215 211 212 210 212 212 214 211 211 210 210 210 211 210 209 210 214 216 211 215 217 225 217
341 344 348 350 350 348 340 321 299 287 277 269 261 259 259 256 253 249 242 238 231 221 216 213 214 214 213 211 213 212 212 211 210 210 210 210 209 209 211 216 217 222 223 224 225
342 345 346 350 349 346 339 329 308 292 282 269 261 266 270 267 271 265 244 230 228 225 218 216 214 215 216 214 215 215 215 214 211 212 211 210 211 213 212 217 216 223 226 224 227
341 346 345 348 348 345 341 332 318 299 288 279 272 273 280 288 286 268 244 224 219 220 220 218 217 216 216 216 215 215 215 215 215 213 213 213 213 216 217 219 221 219 219 223 227
341 344 347 347 348 343 344 326 317 305 298 293 289 287 295 305 307 283 249 223 217 215 218 218 218 217 217 217 216 217 217 217 217 216 216 215 215 217 220 220 221 221 219 221 216
Height
10929 10927 10925 10922 10919 10916 10916 10915 10913 10913 10913 10914 10916 10919 10925 10931 10939 10947 10951 10957 10964 10970 10976 10981 10985 10988 10992 10997 11001 11004 11007 11009 11011 11013 11014 11015 11014 11014 11013 11011 11009 11007 11003 10998 10992
10925 10923 10920 10918 10915 10912 10910 10909 10908 10906 10905 10907 10907 10910 10914 10920 10928 10936 10943 10950 10955 10962 10969 10975 10980 10984 10989 10994 10999 11003 11006 11008 11010 11011 11014 11015 11015 11015 11015 11013 11011 11010 11006 11002 10998
10921 10918 10916 10913 10910 10908 10905 10902 10900 10900 10900 10899 10898 10901 10905 10910 10917 10924 10932 10940 10947 10954 10961 10968 10975 10981 10985 10991 10996 11000 11003 11006 11009 11010 11014 11013 11016 11016 11016 11015 11014 11012 11009 11007 11003
10916 10913 10911 10908 10905 10902 10899 10896 10893 10892 10890 10890 10890 10890 10895 10899 10907 10911 10921 10929 10937 10945 10954 10962 10970 10976 10980 10987 10992 10998 11000 11004 11007 11009 11012 11013 11015 11015 11017 11017 11015 11015 11012 11010 11008
10910 10907 10904 10900 10897 10894 10891 10888 10885 10883 10881 10880 10880 10880 10882 10888 10894 10900 10908 10916 10927 10936 10946 10955 10963 10970 10975 10982 10988 10994 10999 11002 11006 11008 11011 11012 11011 11014 11017 11017 11017 11016 11015 11013 11012
10904 10900 10896 10892 10888 10885 10881 10877 10874 10871 10869 10868 10868 10869 10871 10875 10880 10886 10894 10903 10914 10926 10937 10946 10956 10962 10968 10976 10983 10990 10993 11000 11004 11006 11007 11010 11011 11014 11016 11018 11018 11018 11018 11016 11015
10896 10892 10887 10883 10878 10874 10870 10866 10862 10859 10856 10855 10854 10853 10857 10860 10866 10874 10881 10891 10901 10914 10927 10937 10945 10953 10961 10970 10976 10981 10991 10997 11002 11003 11005 11007 11011 11013 11016 11018 11019 11020 11020 11018 11017
10888 10883 10878 10871 10866 10860 10854 10849 10843 10840 10837 10837 10837 10837 10840 10844 10850 10861 10869 10878 10889 10901 10913 10924 10934 10942 10951 10962 10970 10974 10981 10991 10997 10998 11001 11005 11008 11011 11015 11017 11018 11020 11020 11020 11020
10879 10873 10866 10858 10850 10843 10836 10829 10822 10816 10813 10813 10816 10819 10822 10827 10834 10843 10855 10865 10875 10887 10899 10912 10922 10931 10941 10951 10962 10966 10974 10984 10991 10993 10998 11002 11006 11010 11012 11013 11016 11018 11020 11021 11022
10869 10861 10853 10844 10836 10825 10816 10805 10794 10788 10786 10787 10792 10799 10804 10809 10817 10827 10837 10848 10859 10869 10884 10898 10907 10918 10929 10939 10952 10958 10966 10977 10984 10989 10991 10999 11004 11005 11009 11010 11014 11016 11018 11021 11022
10857 10848 10839 10830 10818 10802 10789 10773 10760 10753 10750 10757 10766 10774 10782 10790 10800 10809 10821 10832 10843 10856 10869 10880 10893 10901 10913 10929 10943 10950 10958 10967 10978 10984 10987 10992 10997 10998 11004 11007 11011 11014 11016 11019 11021
10846 10836 10826 10814 10797 10778 10759 10739 10722 10716 10717 10724 10735 10748 10761 10771 10781 10791 10803 10815 10826 10838 10851 10865 10875 10889 10908 10918 10931 10941 10950 10957 10969 10976 10984 10982 10989 10993 10998 11002 11007 11010 11013 11017 11019
10835 10824 10813 10797 10776 10754 10731 10711 10700 10697 10697 10701 10710 10725 10741 10752 10764 10775 10789 10799 10811 10823 10832 10844 10861 10878 10891 10904 10916 10929 10938 10949 10958 10967 10974 10976 10981 10986 10994 10999 11002 11006 11007 11013 11016
10825 10813 10798 10781 10758 10734 10712 10696 10689 10686 10687 10690 10697 10708 10721 10736 10748 10761 10774 10787 10797 10806 10819 10834 10852 10866 10877 10888 10902 10916 10927 10939 10948 10956 10965 10970 10973 10979 10988 10990 10996 11000 11003 11008 11011
10815 10802 10786 10765 10743 10721 10700 10688 10682 10680 10681 10684 10691 10701 10711 10724 10736 10748 10761 10771 10782 10794 10810 10821 10834 10850 10864 10875 10889 10906 10916 10927 10936 10946 10954 10960 10964 10971 10979 10983 10989 10995 10999 11003 11007
10805 10792 10775 10754 10731 10710 10693 10685 10680 10678 10680 10682 10689 10697 10705 10714 10723 10736 10746 10758 10769 10779 10794 10813 10822 10835 10848 10863 10878 10892 10905 10913 10924 10935 10944 10951 10958 10963 10968 10976 10983 10988 10992 10996 11001
10796 10783 10765 10745 10723 10703 10689 10683 10680 10678 10679 10682 10687 10693 10700 10709 10716 10725 10735 10743 10753 10765 10782 10793 10808 10822 10836 10850 10866 10879 10892 10904 10914 10923 10933 10942 10949 10953 10958 10965 10974 10979 10985 10989 10995
10788 10776 10758 10740 10717 10697 10687 10682 10680 10680 10681 10682 10685 10690 10695 10702 10710 10718 10726 10733 10741 10750 10767 10776 10794 10808 10823 10838 10849 10867 10880 10894 10904 10915 10922 10933 10940 10944 10950 10956 10962 10970 10978 10983 10989
10781 10768 10752 10732 10714 10695 10686 10681 10680 10680 10680 10682 10684 10687 10692 10698 10704 10709 10715 10721 10729 10738 10750 10762 10776 10793 10806 10821 10836 10849 10869 10878 10889 10902 10913 10925 10931 10934 10941 10945 10951 10961 10967 10975 10981
10774 10761 10746 10728 10709 10693 10685 10681 10679 10678 10679 10680 10682 10684 10687 10692 10697 10701 10706 10711 10716 10727 10740 10749 10763 10776 10786 10802 10820 10837 10848 10867 10878 10887 10899 10913 10921 10927 10930 10933 10939 10947 10955 10966 10973
10768 10755 10740 10723 10706 10689 10682 10679 10679 10678 10677 10678 10679 10682 10685 10687 10690 10695 10699 10703 10708 10715 10726 10738 10749 10763 10775 10790 10804 10822 10834 10853 10862 10874 10888 10902 10907 10912 10917 10924 10927 10936 10945 10955 10963
10761 10749 10735 10718 10703 10687 10677 10675 10674 10674 10674 10675 10676 10677 10679 10682 10683 10687 10691 10696 10700 10705 10714 10726 10739 10756 10761 10771 10787 10806 10820 10833 10848 10861 10875 10884 10896 10901 10907 10912 10918 10924 10933 10943 10951
10755 10743 10730 10714 10699 10684 10673 10668 10667 10668 10668 10669 10669 10670 10672 10674 10677 10680 10682 10685 10690 10695 10704 10714 10724 10738 10751 10765 10773 10788 10803 10820 10833 10843 10858 10870 10877 10882 10891 10901 10908 10914 10921 10932 10940
10748 10735 10722 10709 10695 10681 10669 10664 10662 10661 10661 10661 10660 10660 10661 10662 10663 10664 10668 10671 10677 10684 10691 10700 10711 10724 10735 10738 10748 10769 10787 10801 10815 10828 10839 10852 10859 10866 10875 10885 10895 10903 10910 10919 10929
10742 10729 10715 10701 10688 10676 10665 10659 10657 10655 10654 10654 10653 10651 10650 10648 10646 10643 10644 10650 10659 10667 10676 10686 10694 10705 10718 10735 10753 10766 10775 10784 10798 10809 10820 10828 10842 10850 10859 10868 10881 10890 10899 10907 10916
10733 10722 10709 10696 10681 10670 10660 10654 10651 10648 10647 10645 10643 10642 10639 10635 10630 10625 10625 10630 10638 10648 10660 10669 10679 10691 10703 10719 10735 10744 10755 10765 10778 10790 10805 10816 10824 10835 10846 10854 10863 10875 10882 10892 10902
10724 10714 10702 10688 10677 10665 10655 10650 10645 10642 10639 10637 10632 10631 10628 10623 10617 10613 10611 10615 10621 10632 10643 10653 10665 10677 10689 10702 10716 10729 10739 10750 10766 10777 10788 10796 10804 10818 10827 10837 10848 10858 10867 10878 10884